This demonstration page uses our WeatherBlox Daily Observations layout. Learn more.

Left ArrowRight Arrow

39.51506, -84.39828

Hourly Observations for February 19, 2018

Temp ( °F °C ) Dew Point ( °F °C ) Humidity (%) Winds ( mph kmh ) Pressure ( in mb ) Visibility ( mi km ) Precip ( " mm )
12:15 am 00:15 Partly Cloudy 40 4.3 32 -0.1 73 73 S 3 6 30.12 1020 10 16 0.00 0.00
12:35 am 00:35 Clear 40 4.7 32 0 72 72 S 3 6 30.09 1019 10 16 0.00 0.00
12:55 am 00:55 Partly Cloudy 41 4.8 32 0 71 71 S 6 9 30.09 1019 10 16 0.00 0.00
1:15 am 01:15 Clear 40 4.2 31 -0.4 72 72 Calm 30.12 1020 10 16 0.00 0.00
1:35 am 01:35 Clear 39 3.8 31 -0.5 74 74 Calm 30.12 1020 10 16 0.00 0.00
1:55 am 01:55 Clear 35 1.8 32 -0.1 87 87 Calm 30.12 1020 10 16 0.00 0.00
2:15 am 02:15 Clear 34 1.2 31 -0.3 90 90 Calm 30.12 1020 10 16 0.00 0.00
2:35 am 02:35 Cloudy 35 1.4 33 0.4 93 93 Calm 30.09 1019 10 16 0.00 0.00
2:55 am 02:55 Cloudy 35 1.7 33 0.5 92 92 W 3 6 30.12 1020 10 16 0.00 0.00
3:15 am 03:15 Cloudy 36 2.4 34 1 91 91 Calm 30.09 1019 10 16 0.00 0.00
3:35 am 03:35 Cloudy 40 4.2 35 1.6 83 83 Calm 30.12 1020 10 16 0.00 0.00
3:55 am 03:55 Cloudy 43 6.2 36 2.3 76 76 SSW 7 11 30.06 1018 10 16 0.00 0.00
4:15 am 04:15 Cloudy 47 8.5 37 2.8 68 68 S 10 17 30.06 1018 10 16 0.00 0.00
4:35 am 04:35 Cloudy 48 8.9 38 3.3 68 68 S 8 13 30.06 1018 10 16 0.00 0.00
4:55 am 04:55 Cloudy 49 9.4 40 4.3 71 71 SSW 9 15 30.06 1018 10 16 0.00 0.00
5:15 am 05:15 Cloudy 48 9.1 42 5.4 78 78 SSW 10 17 30.06 1018 10 16 0.00 0.00
5:35 am 05:35 Cloudy 47 8.6 44 6.5 87 87 SSW 13 20 30.06 1018 10 16 0.03 0.76
5:55 am 05:55 Cloudy 48 8.8 45 7 89 89 SSW 9 15 30.06 1018 10 16 0.03 0.76
6:15 am 06:15 Cloudy 48 9.1 45 7.4 89 89 SSW 6 9 30.06 1018 10 16 0.00 0.00
6:35 am 06:35 Cloudy 49 9.5 46 7.9 90 90 SSW 8 13 30.06 1018 10 16 0.00 0.00
6:55 am 06:55 Cloudy 50 9.8 47 8.3 90 90 SSW 6 9 30.06 1018 10 16 0.00 0.00
7:15 am 07:15 Cloudy 50 10.2 48 8.8 91 91 SSW 7 11 30.06 1018 10 16 0.00 0.00
7:35 am 07:35 Cloudy with Nearby Thunderstorms 51 10.5 49 9.3 92 92 SSW 9 15 30.06 1018 10 16 0.00 0.00
7:55 am 07:55 Cloudy 52 11 50 9.8 92 92 SSW 10 17 30.06 1018 10 16 0.00 0.00
8:15 am 08:15 Cloudy 53 11.7 51 10.5 92 92 S 10 17 30.06 1018 10 16 0.00 0.00
8:35 am 08:35 Cloudy 54 12 51 10.8 92 92 S 8 13 30.06 1018 10 16 0.00 0.00
8:55 am 08:55 Cloudy 54 12.3 52 11 92 92 SSW 7 11 30.06 1018 10 16 0.00 0.00
9:15 am 09:15 Cloudy 55 12.5 53 11.7 95 95 SSW 7 11 30.06 1018 4 6 0.02 0.51
9:35 am 09:35 Cloudy 56 13.2 54 12.4 95 95 SSW 9 15 30.06 1018 10 16 0.03 0.76
9:55 am 09:55 Cloudy 57 14 55 12.9 93 93 SSW 9 15 30.06 1018 10 16 0.03 0.76
10:15 am 10:15 Cloudy 58 14.3 56 13.2 93 93 SSW 9 15 30.06 1018 10 16 0.00 0.00
10:35 am 10:35 Cloudy 59 15.2 57 13.8 91 91 SSW 12 19 30.06 1018 10 16 0.00 0.00
10:55 am 10:55 Cloudy 61 16 57 14.1 89 89 SSW 13 20 30.03 1017 10 16 0.00 0.00
11:15 am 11:15 Mostly Cloudy 63 17.4 58 14.6 84 84 SW 17 28 30.03 1017 10 16 0.00 0.00
11:35 am 11:35 Mostly Cloudy 65 18.3 58 14.7 80 80 SW 18 30 30.03 1017 10 16 0.00 0.00
11:55 am 11:55 Cloudy 66 18.7 58 14.7 78 78 SW 21 33 30.03 1017 10 16 0.00 0.00
12:15 pm 12:15 Cloudy 67 19.3 59 14.9 76 76 SW 18 30 30.03 1017 10 16 0.00 0.00
12:35 pm 12:35 Cloudy 67 19.6 59 14.9 74 74 SW 17 28 30.03 1017 10 16 0.00 0.00
12:55 pm 12:55 Cloudy 66 19 58 14.6 76 76 SW 18 30 30.03 1017 10 16 0.00 0.00
1:15 pm 13:15 Cloudy 66 19.1 58 14.7 76 76 SW 16 26 30.03 1017 10 16 0.00 0.00
1:35 pm 13:35 Partly Cloudy 67 19.6 59 14.8 74 74 SW 15 24 30.03 1017 10 16 0.00 0.00
1:55 pm 13:55 Sunny 68 19.8 60 15.4 76 76 SW 13 20 30.00 1016 10 16 0.00 0.00
2:15 pm 14:15 Mostly Cloudy 70 21.3 60 15.4 69 69 SW 13 20 30.00 1016 10 16 0.00 0.00
2:35 pm 14:35 Cloudy 71 21.7 59 15.1 66 66 SW 13 20 30.00 1016 10 16 0.00 0.00
2:55 pm 14:55 Partly Cloudy 73 22.6 58 14.6 61 61 SW 16 26 30.00 1016 10 16 0.00 0.00
3:15 pm 15:15 Partly Cloudy 72 22.4 57 14.1 60 60 SSW 16 26 30.00 1016 10 16 0.00 0.00
3:35 pm 15:35 Partly Cloudy 74 23.1 57 13.9 56 56 SSW 20 31 30.00 1016 10 16 0.00 0.00
3:55 pm 15:55 Mostly Cloudy 73 23 57 14 57 57 SW 17 28 30.00 1016 10 16 0.00 0.00
4:15 pm 16:15 Mostly Cloudy 73 22.8 57 14.1 58 58 SSW 15 24 30.00 1016 10 16 0.00 0.00
4:35 pm 16:35 Partly Cloudy 73 22.7 57 14.1 58 58 SSW 16 26 30.00 1016 10 16 0.00 0.00
4:55 pm 16:55 Mostly Cloudy 73 22.6 57 14 58 58 SSW 18 30 30.00 1016 10 16 0.00 0.00
5:15 pm 17:15 Cloudy 72 22.4 56 13.5 57 57 SW 16 26 30.00 1016 10 16 0.00 0.00
5:35 pm 17:35 Partly Cloudy 72 22.3 56 13.1 56 56 SW 18 30 30.00 1016 10 16 0.00 0.00
5:55 pm 17:55 Sunny 71 21.4 55 12.9 59 59 SSW 15 24 30.00 1016 10 16 0.00 0.00
6:15 pm 18:15 Sunny 70 20.9 55 12.8 60 60 SW 12 19 30.00 1016 10 16 0.00 0.00
6:35 pm 18:35 Partly Cloudy 66 19.1 55 12.5 66 66 SW 6 9 30.03 1017 10 16 0.00 0.00
6:55 pm 18:55 Partly Cloudy 68 19.9 56 13.3 66 66 SSW 9 15 30.03 1017 10 16 0.00 0.00
7:15 pm 19:15 Partly Cloudy 69 20.5 56 13.1 63 63 SSW 14 22 30.03 1017 10 16 0.00 0.00
7:35 pm 19:35 Clear 69 20.6 55 12.7 61 61 SSW 14 22 30.03 1017 10 16 0.00 0.00
7:55 pm 19:55 Clear 68 20.1 55 12.5 62 62 SSW 13 20 30.03 1017 10 16 0.00 0.00
8:15 pm 20:15 Clear 68 20 55 12.6 63 63 SSW 16 26 30.03 1017 10 16 0.00 0.00
8:35 pm 20:35 Clear 68 19.8 55 12.5 63 63 SSW 15 24 30.03 1017 10 16 0.00 0.00
8:55 pm 20:55 Clear 67 19.3 55 12.7 66 66 SSW 12 19 30.03 1017 10 16 0.00 0.00
9:15 pm 21:15 Clear 66 19.1 56 13.1 68 68 SSW 14 22 30.03 1017 10 16 0.00 0.00
9:35 pm 21:35 Clear 67 19.2 55 13 67 67 SSW 15 24 30.03 1017 10 16 0.00 0.00
9:55 pm 21:55 Clear 66 18.7 55 13 70 70 SSW 13 20 30.03 1017 10 16 0.00 0.00
10:15 pm 22:15 Clear 66 18.7 55 12.7 68 68 SSW 12 19 30.03 1017 10 16 0.00 0.00
10:35 pm 22:35 Clear 65 18.2 55 12.6 70 70 SSW 10 17 30.03 1017 10 16 0.00 0.00
10:55 pm 22:55 Clear 65 18.1 55 12.8 71 71 SSW 13 20 30.03 1017 10 16 0.00 0.00
11:15 pm 23:15 Clear 64 18 55 12.8 72 72 SSW 12 19 30.06 1018 10 16 0.00 0.00
11:35 pm 23:35 Clear 63 17.3 55 12.7 75 75 SSW 9 15 30.06 1018 10 16 0.00 0.00
11:55 pm 23:55 Clear 63 17.2 55 12.6 75 75 SSW 10 17 30.06 1018 10 16 0.00 0.00

Powered by AerisWeather